THOR ABLESTAR DEB, 659

Orbit data source: Space-Track

THOR ABLESTAR DEB, 659 is space debris in LEO originally from a launch on Thu, 29 Jun 1961 UTC launched from the Air Force Eastern Test Range (AFETR). Debris objects in space refer to the collection of defunct objects orbiting the Earth. Examples of debris include non-operational satellites, rocket bodies, and fragments generated from explosions, collisions, or faulty payload assembly.

Loading next visibility...
Identifier
659, 1961-015HL
Orbit
LEO
Country
Flag of USUS
Related business
Manufacturer
Unknown
Mission
Spacecraft
Bus & Motor
Unknown
Mass
Unknown
Launch date (UTC)
1961-06-29 (65 years ago)
Launch vehicle
Unknown
Launch site
Air Force Eastern Test Range (AFETR)
Object type
Payload
Rocket body
Debris
Shape & HBR
Unknown shape, 0.2 m
Radar Cross Section
Small (<0.1 m²)

Expand to show TLE details & history
Last TLE update: 6 hours ago

TLE from 6 hours ago
0 THOR ABLESTAR DEB
1 00659U 61015HL  26038.92577635  .00000634  00000-0  18350-2 0  9998
2 00659  67.1634 351.2755 0585723   8.6368  48.4614 12.66771734974650
Epoch: 2026-02-07T22:13Z
TLE epoch observation values (Epoch: 2026-02-07T22:13:07.076Z)
Latitude
54.85306°
Longitude
-83.52936°
Altitude
1,117.263 km
Speed
7.433 km/s
True Right ascension
01h 51m 10s
True Declination
54° 41' 56"
Sunlit
Object was in daylight at epoch
Visualization orbit readout
Latitude
Unknown
Longitude
Unknown
Altitude
Unknown
Speed
Unknown
Apparent Right ascension
Unknown
Apparent Declination
Unknown
Sunlit
N/A
Visualization observer readout
Local Sidereal Time
06:24:03
Azimuth
Unknown
Elevation
Unknown
Doppler factor
Unknown
Orbital elements
Apogee altitude
1,848.769 km
Perigee altitude
938.356 km
Semi-major axis
7,771.7 km
Eccentricity
0.05857
Inclination
67.1634°
RAAN
351.2755°
Arg. of periapsis
8.6368°
True anomaly
53.73362°
Mean anomaly
48.4614°
Eccentric anomaly
51.07212°
Mean motion
3.16788 °/min
Orbital period
113.64 mins
BSTAR
0.001835
Loading maneuver chart data...
Computing Atmospheric mass density...

Documentation

Showing up to 5 results
|